◎2006 YZの軌道と予報位置    [From JSGA Web News No. 126]



JSGA Web News No. 126                                             2008 Jan. 11



アポロ型特異小惑星 2007 YZの軌道改良

  JSGA Web New. No.123で,美星スペースガードセンターで発見されたアポロ型小惑

星 2007 YZの発見を紹介したが,この小惑星は,2008年1月09.6日UTに地球に0.1167

AUまで接近し,その頃,15等級まで明るくなった.このとき,小惑星は,日々運動4゚

近い高速で空を移動した.我が国でも,雄踏の和久田俊一氏(S. Wakuda, Yuto;379),

秦野の浅見敦夫氏(A. Asami, Hadano;355)がこの小惑星の接近を捕らえた.



 次の軌道は,2007年12月17日の発見観測から,2007年1月10日までに行なわれた273

個の観測を使用して決定したもの.

               。

       Mo=  44.4380                Epoch = 2008 May  14.0 TT

       ω = 129.6157                   e =   0.361221          H = 19.6

       Ω =  90.7465    (2000.0)       a =   1.042745 AU       G =  0.15

       i =  16.4188                   n゚=   0.9256290

       q =   0.666083 AU              P =   1.06 年





 次の位置予報は,地心からのもの(0時TT).小惑星は,これから次第に暗くなっ

ていくが,まだ,23日間しか観測されていない.軌道の精度を上げるために,ここし

ばらくの追跡観測が必要である.



2008/        α  (2000) δ      △      r     日々運動   Elong.  Phase   V  

  0h TT     h  m       。  ,        AU      AU    ,  PA 。     。      。      等

Jan. 10   04 21.76  +69 24.9    0.117   1.056 211.9/302   125.6   49.3   16.9

     11   03 44.83  +71 05.0    0.117   1.050 208.3/294   121.6   52.9   17.0

     12   03 03.03  +72 12.2    0.118   1.043 203.2/284   117.7   56.6   17.1

     13   02 18.52  +72 42.3    0.119   1.037 197.1/273   113.8   60.1   17.2

     14   01 34.43  +72 35.1    0.121   1.031 190.1/263   110.1   63.6   17.3

     15   00 53.75  +71 54.9    0.123   1.025 182.5/253   106.4   67.0   17.5

     16   00 18.23  +70 48.7    0.125   1.019 174.5/245   102.9   70.2   17.6

     17   23 48.28  +69 24.2    0.128   1.013 166.3/238    99.5   73.4   17.7

     18   23 23.46  +67 47.9    0.131   1.006 158.2/232    96.2   76.3   17.9

     19   23 02.98  +66 05.1    0.134   1.000 150.2/227    93.1   79.2   18.0

     20   22 46.03  +64 19.2    0.138   0.994 142.5/223    90.1   81.9   18.1

     21   22 31.88  +62 32.8    0.141   0.987 135.1/220    87.3   84.5   18.3

     22   22 19.97  +60 47.5    0.145   0.981 128.1/218    84.6   86.9   18.4

     23   22 09.85  +59 04.4    0.149   0.975 121.6/215    82.0   89.3   18.6

     24   22 01.15  +57 24.1    0.153   0.968 115.4/213    79.6   91.5   18.7

     25   21 53.61  +55 47.0    0.157   0.962 109.7/212    77.2   93.6   18.8

     26   21 47.02  +54 13.1    0.162   0.955 104.4/210    75.0   95.6   19.0

     27   21 41.21  +52 42.5    0.166   0.949  99.5/209    72.8   97.5   19.1

     28   21 36.05  +51 15.2    0.171   0.942  95.0/208    70.8   99.3   19.2

     29   21 31.45  +49 50.9    0.176   0.936  90.8/207    68.9  101.0   19.4

     30   21 27.31  +48 29.7    0.181   0.929  87.0/206    67.0  102.7   19.5

     31   21 23.58  +47 11.2    0.185   0.923  83.6/205    65.2  104.3   19.6

Feb.  1   21 20.19  +45 55.3    0.190   0.916  80.4/204    63.5  105.7   19.7





軌道と残差:

 

2007 YZ

Epoch 2008 May 14.0 TT = JDT 2454600.5                  Nakano

M  44.43798              (2000.0)            P               Q

n   0.92562899     Peri.  129.61571     -0.73055438     +0.62161843

a   1.0427449      Node    90.74655     -0.68041479     -0.62770818

e   0.3612214      Incl.   16.41879     -0.05767165     -0.46858615

P   1.06           H   19.6           G   0.15           U   6

Residuals in seconds of arc 

071217 300  0.0   0.1+    071227 448  0.0   0.1-    080101 379  0.4-  1.1-  

071217 300  0.8-  0.2-    071227 A48  0.2+  0.1-    080101 379  0.7+  0.8-  

071217 300  0.0   0.2+    071227 A48  0.1+  0.1+    080101 379  0.2-  1.3-  

071217 300  0.3-  0.4-    071227 A48  0.3+  0.0     080102 379  0.2-  0.0   

071217 300  0.0   0.1-    071227 A48  0.2+  0.1+    080102 379  0.1-  0.5-  

071217 300  0.0   0.4-    071228 J34  0.1+  0.2+    080102 379  0.1+  0.7-  

071217 300  1.3-  0.5-    071228 J34  0.2+  0.5+    080102 379  0.3-  0.1-  

071217 349  0.5+  0.4-    071228 J34  0.2+  0.3+    080102 379  0.0   0.0   

071217 349  0.5+  0.0     071228 176  0.1+  0.2-    080102 379  0.3-  0.0   

071217 349  0.6+  0.4-    071228 176  0.1+  0.1-    080102 379  0.1-  0.5-  

071217 349  0.3+  0.1-    071228 176  0.4-  0.1-    080102 355  0.3-  0.4-  

071217 461  0.2-  0.3+    071228 176  0.3-  0.2-    080102 355  0.1+  0.4+  

071217 461  0.2-  0.1+    071228 176  0.0   0.1-    080102 355  0.4+  0.4+  

071217 461  0.1-  0.2+    071229 H45  0.1-  0.0     080102 355  0.2+  0.4+  

071217 A17  0.4-  0.3-    071229 H45  0.1+  0.1+    080102 355  0.3+  0.0   

071217 461  0.1-  0.1+    071229 H45  0.0   0.1-    080102 J51  0.1+  0.0   

071217 A17  0.7+  0.7-    071229 H45  0.1-  0.2+    080102 J51  0.1-  0.0   

071217 461  0.1-  0.4+    071229 H45  0.0   0.1+    080103 J51  0.2-  0.0   

071217 A17  0.6-  0.0     071229 H45  0.1+  0.2+    080103 H51  0.3-  0.4+  

071217 595  0.0   0.8+    071229 H45  0.1-  0.1+    080103 H51  0.1-  0.2+  

071217 595  0.2+  0.4+    071229 130  0.1+  0.2-    080103 H51  0.3-  0.2+  

071218 H01  0.1+  0.1+    071229 130  0.1+  0.2-    080103 H51  0.2-  0.2+  

071218 H01  0.2-  0.2+    071229 130  0.1+  0.2-    080103 H51  0.3-  0.4+  

071218 H01  0.1-  0.1+    071229 130  0.0   0.3-    080103 H51  0.2-  0.1+  

071218 H01  0.1-  0.1-    071230 B09  0.1+  0.1+    080103 H51  0.3-  0.3+  

071218 704  0.1+  0.3+    071230 B09  0.1-  0.0     080103 H51  0.4-  0.3+  

071218 704  0.2+  0.4-    071230 B09  0.0   0.0     080103 H51  0.4-  0.4+  

071218 704  0.7+  0.3-    071230 703  0.1+  0.0     080103 H51  0.1-  0.2+  

071218 704  0.0   1.1+    071230 H45  0.0   0.2-    080103 H45  0.3+  0.0   

071218 704  0.4+  0.4+    071230 H45  0.2-  0.1-    080103 H45  0.0   0.0   

071218 704  0.3+  0.2-    071230 H45  0.1+  0.0     080103 H45  0.0   0.3+  

071218 704  0.4+  0.6+    071230 703  0.0   0.1-    080103 H45  0.0   0.1+  

071218 704  0.2+  0.0     071230 H45  0.0   0.1+    080103 H45  0.4+  0.1+  

071218 704  0.3+  0.4+    071230 H45  0.0   0.1+    080103 H45  0.3+  0.2+  

071218 704  0.2+  0.1-    071230 H45  0.2-  0.2-    080103 H45  0.2+  0.0   

071218 300  0.4-  1.2-    071230 H45  0.1+  0.0     080103 H45  0.3+  0.2+  

071218 300  0.0   0.8-    071230 703  0.2+  0.3+    080103 379  0.0   0.2+  

071218 300  0.1+  0.0     071230 703  0.2-  0.2-    080103 379  0.0   0.2-  

071218 300  0.9-  0.5+    071230 703  0.1+  0.1-    080103 379  0.2-  0.1+  

071218 300  0.2+  0.1+    071230 703  0.2-  0.2+    080103 379  0.3-  0.1+  

071218 246  0.2+  0.3-    071230 703  0.2-  0.3+    080103 379  0.0   0.1+  

071218 246  0.1+  0.3-    071230 355  0.3+  0.2+    080103 379  0.2+  0.1+  

071218 246  0.1+  0.3-    071230 355  0.3+  0.2+    080104 H45  0.0   0.2+  

071218 246  0.0   0.2+    071230 355  0.1-  0.4-    080104 H45  0.2-  0.4+  

071218 246  0.1-  0.3-    071230 355  0.4+  0.2-    080104 H45  0.0   0.2+  

071218 246  0.2+  0.3-    071230 355  0.0   0.2-    080104 H45  0.1-  0.4+  

071219 H45  0.1+  0.3+    071230 355  0.0   0.2+    080104 H45  0.1+  0.2+  

071219 H45  0.1-  0.1+    071230 355  0.0   0.1+    080104 H45  0.0   0.4+  

071219 H45  0.1-  0.2-    071230 170  0.3+  0.0     080104 H45  0.1-  0.3+  

071219 H45  0.1+  0.1+    071230 170  0.2+  0.0     080104 H45  0.0   0.4+  

071219 H45  0.2-  0.3-    071230 170  0.2+  0.1-    080104 H45  0.1-  0.4+  

071219 H45  0.2+  0.3+    071231 H45  0.1-  0.4+    080105 726  0.4-  0.1+  

071219 H45  0.2+  0.2-    071231 H45  0.0   0.1+    080105 726  0.4+  0.3+  

071219 D62  0.2-  1.5+    071231 H45  0.0   0.1-    080105 726  0.1+  0.5+  

071219 D62  0.4-  1.6+    071231 H45  0.1-  0.1+    080105 726  0.1-  0.5+  

071219 D62 (0.0   2.1+)   071231 H45  0.0   0.1+    080105 726  0.3+  0.5+  

071219 D62 (0.1+  2.0+)   071231 H45  0.1-  0.0     080105 B34  0.1-  1.7-  

071219 D62  0.5-  1.8+    071231 H45  0.0   0.1+    080105 B34  0.8+  1.0-  

071220 379  0.6-  0.1-    071231 379  0.0   0.7-    080105 B34  0.7+  0.8-  

071220 379  0.2+  0.4+    071231 379  0.6-  0.2-    080105 J66  0.0   0.1-  

071220 379  0.1-  0.1+    071231 379  0.4-  0.5-    080105 J66  0.1-  0.3+  

071220 246  0.1-  0.1-    071231 379  0.3+  0.0     080105 J66  0.1-  0.2+  

071220 246  0.2+  0.1-    071231 379  0.2-  0.5-    080105 J66  0.1-  0.1+  

071220 246  0.0   0.0     071231 379  0.7-  0.1-    080106 J66  0.1-  0.0   

071220 246  0.1-  0.4-    071231 379  0.2+  0.1-    080106 J66  0.0   0.0   

071220 246  0.1+  0.3-    071231 379  0.1+  0.4-    080106 J66  0.0   0.1+  

071220 246  0.6-  0.1-    071231 355  0.2+  0.4+    080106 J66  0.2-  0.2+  

071220 246  0.0   0.3-    071231 355  0.3-  0.3+    080106 J51  0.1-  0.1+  

071220 246  0.0   0.1+    071231 355  0.3-  0.2+    080106 J51  0.0   0.0   

071220 246  0.0   0.4-    071231 355  0.1+  0.0     080106 J51  0.1+  0.1+  

071221 204  0.1+  0.1-    071231 355  0.2-  0.4+    080109 726  0.4-  0.6+  

071221 204  0.1-  0.2-    071231 379  0.4-  0.7-    080109 726 (9.6-  9.3+) 

071221 204  0.1+  0.1-    071231 143  0.0   0.2-    080109 726  0.4+  0.2+  

071221 A78  0.2-  0.1+    071231 143  0.0   0.2-    080109 726  0.1-  0.1-  

071221 A78  0.1-  0.2-    071231 143  0.1+  0.3-    080109 726  0.6+  0.3+  

071221 A78  0.4+  0.4-    071231 143  0.2+  0.2-    080109 726  0.1+  0.2+  

071221 A78  0.2-  0.3-    080101 B09  0.1-  0.2+    080109 H45  0.2+  0.0   

071221 B28  0.0   0.1-    080101 B09  0.2+  0.3+    080109 H45  0.2+  0.1+  

071221 B28  0.0   0.1-    080101 H45  0.0   0.0     080109 H45  0.2+  0.2-  

071221 B28  0.2+  0.1-    080101 H45  0.1+  0.0     080109 H45  0.0   0.2+  

071224 H45  0.2+  0.2-    080101 H45  0.3-  0.3+    080109 H45  0.0   0.1+  

071224 H45  0.2+  0.0     080101 H45  0.1-  0.1+    080109 H45  0.1-  0.0   

071224 H45  0.2-  0.1+    080101 H45  0.2-  0.1+    080109 H45  0.0   0.2+  

071224 H45  0.2+  0.1-    080101 H45  0.0   0.0     080109 H45  0.1+  0.1+  

071224 H45  0.4+  0.1-    080101 H45  0.2-  0.2+    080109 H45  0.1-  0.1+  

071224 H45  0.1+  0.3-    080101 379  0.2+  0.0     080110 H45  0.0   0.5-  

071224 H45  0.1+  0.0     080101 355  0.2+  0.1-    080110 H45  0.1-  0.2-  

071224 H45  0.1+  0.0     080101 355  0.2+  0.3-    080110 H45  0.2+  0.3-  

071226 B49  0.6+  0.2+    080101 355  0.3-  0.3-    080110 H45  0.0   0.2-  

071226 B49  0.4+  0.3+    080101 355  0.0   0.1+    080110 H45  0.1+  0.4-  

071227 448  0.0   0.1-    080101 355  0.5-  0.0     080110 H45  0.1-  0.2-  

071227 448  0.4+  0.1-    080101 379  0.5-  0.4-    080110 H45  0.1-  0.2-  

 

RunOff=2881".3

 

日本スペースガード協会            (c) Copyright JSGA 2008           中野 主一

         **** Don't distribute anyone except personal use only ****

                (C) Copyright 2008 OAA/ComputingSection

write mail from CFAD0::NAKANO on 2008-01-11 07:04:36(JST).

 



戻ります。